Location: Berua Church
(35.0423°N, 88.5987°W)
Time: 04:53:13
(UTC+00:00)

Cosmos 1980 - Pass Details

Date: 08 December 2019
Orbit: 838 x 849 km, 71.0° (Epoch: 27 January)

Event Time Altitude Azimuth Distance (km) Brightness Sun altitude
Rises 23:32:24 0° 206° (SSW) 3,372 7.6 -10.1°
Reaches altitude 10° 23:34:51 10° 209° (SSW) 2,442 6.9 -10.6°
Maximum altitude 23:40:25 69° 292° (WNW) 894 4.0 -11.7°
Drops below altitude 10° 23:46:03 10° 16° (NNE) 2,460 5.8 -12.8°
Enters shadow 23:48:04 - 19° (NNE) 3,223 6.4 -13.2°
